owner,sensor,date,latitude,longitude,air_temperature,qcFlag 
DISL,ioos:station:DISL:CATA:1,2017-08-01T00:00:00Z,30.3085,-88.1395,30.09,1111122 
DISL,ioos:station:DISL:CATA:1,2017-08-01T00:30:00Z,30.3085,-88.1395,28.65,1111122 
DISL,ioos:station:DISL:CATA:1,2017-08-01T01:00:00Z,30.3085,-88.1395,28.17,1111122 
DISL,ioos:station:DISL:CATA:1,2017-08-01T01:30:00Z,30.3085,-88.1395,28.07,1111122 
DISL,ioos:station:DISL:CATA:1,2017-08-01T02:00:00Z,30.3085,-88.1395,27.97,1111122 
DISL,ioos:station:DISL:CATA:1,2017-08-01T02:30:00Z,30.3085,-88.1395,27.97,1111122 
DISL,ioos:station:DISL:CATA:1,2017-08-01T03:00:00Z,30.3085,-88.1395,28.24,1111122 
DISL,ioos:station:DISL:CATA:1,2017-08-01T03:30:00Z,30.3085,-88.1395,28.38,1111122 
DISL,ioos:station:DISL:CATA:1,2017-08-01T04:00:00Z,30.3085,-88.1395,28.38,1111122 
DISL,ioos:station:DISL:CATA:1,2017-08-01T04:30:00Z,30.3085,-88.1395,28.62,1111122 
DISL,ioos:station:DISL:CATA:1,2017-08-01T05:00:00Z,30.3085,-88.1395,28.65,1111122 
DISL,ioos:station:DISL:CATA:1,2017-08-01T05:30:00Z,30.3085,-88.1395,28.59,1111122 
DISL,ioos:station:DISL:CATA:1,2017-08-01T06:30:00Z,30.3085,-88.1395,27.97,1111122 
DISL,ioos:station:DISL:CATA:1,2017-08-01T07:00:00Z,30.3085,-88.1395,27.87,1111122 
DISL,ioos:station:DISL:CATA:1,2017-08-01T07:30:00Z,30.3085,-88.1395,27.77,1111122 
DISL,ioos:station:DISL:CATA:1,2017-08-01T08:00:00Z,30.3085,-88.1395,27.81,1111122 
DISL,ioos:station:DISL:CATA:1,2017-08-01T08:30:00Z,30.3085,-88.1395,27.43,1111122 
DISL,ioos:station:DISL:CATA:1,2017-08-01T09:00:00Z,30.3085,-88.1395,27.36,1111122 
DISL,ioos:station:DISL:CATA:1,2017-08-01T09:30:00Z,30.3085,-88.1395,27.43,1111122 
DISL,ioos:station:DISL:CATA:1,2017-08-01T10:00:00Z,30.3085,-88.1395,27.5,1111122 
DISL,ioos:station:DISL:CATA:1,2017-08-01T10:30:00Z,30.3085,-88.1395,26.88,1111122 
DISL,ioos:station:DISL:CATA:1,2017-08-01T11:00:00Z,30.3085,-88.1395,26.81,1111122 
DISL,ioos:station:DISL:CATA:1,2017-08-01T11:30:00Z,30.3085,-88.1395,26.88,1111122 
DISL,ioos:station:DISL:CATA:1,2017-08-01T12:00:00Z,30.3085,-88.1395,27.02,1111122 
DISL,ioos:station:DISL:CATA:1,2017-08-01T12:30:00Z,30.3085,-88.1395,26.88,1111122 
DISL,ioos:station:DISL:CATA:1,2017-08-01T13:00:00Z,30.3085,-88.1395,26.8,1111122 
DISL,ioos:station:DISL:CATA:1,2017-08-01T13:30:00Z,30.3085,-88.1395,26.67,1111122 
DISL,ioos:station:DISL:CATA:1,2017-08-01T14:00:00Z,30.3085,-88.1395,26.7,1111122 
DISL,ioos:station:DISL:CATA:1,2017-08-01T14:30:00Z,30.3085,-88.1395,27.15,1111122 
DISL,ioos:station:DISL:CATA:1,2017-08-01T15:00:00Z,30.3085,-88.1395,27.18,1111122 
DISL,ioos:station:DISL:CATA:1,2017-08-01T15:30:00Z,30.3085,-88.1395,27.66,1111122 
DISL,ioos:station:DISL:CATA:1,2017-08-01T16:00:00Z,30.3085,-88.1395,27.9,1111122 
DISL,ioos:station:DISL:CATA:1,2017-08-01T16:30:00Z,30.3085,-88.1395,28.23,1111122 
DISL,ioos:station:DISL:CATA:1,2017-08-01T17:00:00Z,30.3085,-88.1395,28.26,1111122 
DISL,ioos:station:DISL:CATA:1,2017-08-01T17:30:00Z,30.3085,-88.1395,28.53,1111122 
DISL,ioos:station:DISL:CATA:1,2017-08-01T18:00:00Z,30.3085,-88.1395,28.56,1111122 
DISL,ioos:station:DISL:CATA:1,2017-08-01T18:30:00Z,30.3085,-88.1395,28.84,1111122 
DISL,ioos:station:DISL:CATA:1,2017-08-01T19:00:00Z,30.3085,-88.1395,28.9,1111122 
DISL,ioos:station:DISL:CATA:1,2017-08-01T19:30:00Z,30.3085,-88.1395,29.08,1111122 
DISL,ioos:station:DISL:CATA:1,2017-08-01T20:00:00Z,30.3085,-88.1395,29.28,1111122 
DISL,ioos:station:DISL:CATA:1,2017-08-01T20:30:00Z,30.3085,-88.1395,29.59,1111122 
DISL,ioos:station:DISL:CATA:1,2017-08-01T21:00:00Z,30.3085,-88.1395,29.66,1111122 
DISL,ioos:station:DISL:CATA:1,2017-08-01T21:30:00Z,30.3085,-88.1395,29.86,1111122 
DISL,ioos:station:DISL:CATA:1,2017-08-01T22:00:00Z,30.3085,-88.1395,30.31,1111122 
DISL,ioos:station:DISL:CATA:1,2017-08-01T22:30:00Z,30.3085,-88.1395,30.75,1111122 
DISL,ioos:station:DISL:CATA:1,2017-08-01T23:00:00Z,30.3085,-88.1395,29.97,1111122 
DISL,ioos:station:DISL:CATA:1,2017-08-01T23:30:00Z,30.3085,-88.1395,30.07,1111122 
DISL,ioos:station:DISL:CATA:1,2017-08-02T00:00:00Z,30.3085,-88.1395,28.99,1111122 
DISL,ioos:station:DISL:CATA:1,2017-08-02T00:30:00Z,30.3085,-88.1395,28.52,1111122 
DISL,ioos:station:DISL:CATA:1,2017-08-02T01:00:00Z,30.3085,-88.1395,28.35,1111122 
DISL,ioos:station:DISL:CATA:1,2017-08-02T01:30:00Z,30.3085,-88.1395,28.17,1111122 
DISL,ioos:station:DISL:CATA:1,2017-08-02T02:00:00Z,30.3085,-88.1395,28.24,1111122 
DISL,ioos:station:DISL:CATA:1,2017-08-02T02:30:00Z,30.3085,-88.1395,28.24,1111122 
DISL,ioos:station:DISL:CATA:1,2017-08-02T03:00:00Z,30.3085,-88.1395,28.35,1111122 
DISL,ioos:station:DISL:CATA:1,2017-08-02T03:30:00Z,30.3085,-88.1395,28.45,1111122 
DISL,ioos:station:DISL:CATA:1,2017-08-02T04:00:00Z,30.3085,-88.1395,28.41,1111122 
DISL,ioos:station:DISL:CATA:1,2017-08-02T04:30:00Z,30.3085,-88.1395,28.38,1111122 
DISL,ioos:station:DISL:CATA:1,2017-08-02T05:00:00Z,30.3085,-88.1395,28.31,1111122 
DISL,ioos:station:DISL:CATA:1,2017-08-02T05:30:00Z,30.3085,-88.1395,28.38,1111122 
DISL,ioos:station:DISL:CATA:1,2017-08-02T06:30:00Z,30.3085,-88.1395,28.18,1111122 
DISL,ioos:station:DISL:CATA:1,2017-08-02T07:00:00Z,30.3085,-88.1395,28.32,1111122 
DISL,ioos:station:DISL:CATA:1,2017-08-02T07:30:00Z,30.3085,-88.1395,28.25,1111122 
DISL,ioos:station:DISL:CATA:1,2017-08-02T08:00:00Z,30.3085,-88.1395,28.18,1111122 
DISL,ioos:station:DISL:CATA:1,2017-08-02T08:30:00Z,30.3085,-88.1395,25.68,1111122 
DISL,ioos:station:DISL:CATA:1,2017-08-02T09:00:00Z,30.3085,-88.1395,25.92,1111122 
DISL,ioos:station:DISL:CATA:1,2017-08-02T09:30:00Z,30.3085,-88.1395,25.52,1111122 
DISL,ioos:station:DISL:CATA:1,2017-08-02T10:00:00Z,30.3085,-88.1395,24.91,1111122 
DISL,ioos:station:DISL:CATA:1,2017-08-02T10:30:00Z,30.3085,-88.1395,24.84,1111122 
DISL,ioos:station:DISL:CATA:1,2017-08-02T11:00:00Z,30.3085,-88.1395,24.63,1111122 
DISL,ioos:station:DISL:CATA:1,2017-08-02T11:30:00Z,30.3085,-88.1395,24.74,1111122 
DISL,ioos:station:DISL:CATA:1,2017-08-02T12:00:00Z,30.3085,-88.1395,25.25,1111122 
DISL,ioos:station:DISL:CATA:1,2017-08-02T12:30:00Z,30.3085,-88.1395,25.73,1111122 
DISL,ioos:station:DISL:CATA:1,2017-08-02T13:00:00Z,30.3085,-88.1395,26.65,1111122 
DISL,ioos:station:DISL:CATA:1,2017-08-02T13:30:00Z,30.3085,-88.1395,26.99,1111122 
DISL,ioos:station:DISL:CATA:1,2017-08-02T14:00:00Z,30.3085,-88.1395,27.25,1111122 
DISL,ioos:station:DISL:CATA:1,2017-08-02T14:30:00Z,30.3085,-88.1395,27.56,1111122 
DISL,ioos:station:DISL:CATA:1,2017-08-02T15:00:00Z,30.3085,-88.1395,27.15,1111122 
DISL,ioos:station:DISL:CATA:1,2017-08-02T15:30:00Z,30.3085,-88.1395,27.38,1111122 
DISL,ioos:station:DISL:CATA:1,2017-08-02T16:00:00Z,30.3085,-88.1395,27.58,1111122 
DISL,ioos:station:DISL:CATA:1,2017-08-02T16:30:00Z,30.3085,-88.1395,27.5,1111122 
DISL,ioos:station:DISL:CATA:1,2017-08-02T17:00:00Z,30.3085,-88.1395,27.95,1111122 
DISL,ioos:station:DISL:CATA:1,2017-08-02T17:30:00Z,30.3085,-88.1395,28.15,1111122 
DISL,ioos:station:DISL:CATA:1,2017-08-02T18:00:00Z,30.3085,-88.1395,28.36,1111122 
DISL,ioos:station:DISL:CATA:1,2017-08-02T18:30:00Z,30.3085,-88.1395,29.01,1111122 
DISL,ioos:station:DISL:CATA:1,2017-08-02T19:00:00Z,30.3085,-88.1395,28.97,1111122 
DISL,ioos:station:DISL:CATA:1,2017-08-02T19:30:00Z,30.3085,-88.1395,30.1,1111122 
DISL,ioos:station:DISL:CATA:1,2017-08-02T20:00:00Z,30.3085,-88.1395,29.66,1111122 
DISL,ioos:station:DISL:CATA:1,2017-08-02T20:30:00Z,30.3085,-88.1395,29.9,1111122 
DISL,ioos:station:DISL:CATA:1,2017-08-02T21:00:00Z,30.3085,-88.1395,30.0,1111122 
DISL,ioos:station:DISL:CATA:1,2017-08-02T21:30:00Z,30.3085,-88.1395,30.14,1111122 
DISL,ioos:station:DISL:CATA:1,2017-08-02T22:00:00Z,30.3085,-88.1395,30.55,1111122 
DISL,ioos:station:DISL:CATA:1,2017-08-02T22:30:00Z,30.3085,-88.1395,29.73,1111122 
DISL,ioos:station:DISL:CATA:1,2017-08-02T23:00:00Z,30.3085,-88.1395,29.59,1111122 
DISL,ioos:station:DISL:CATA:1,2017-08-02T23:30:00Z,30.3085,-88.1395,29.23,1111122 
DISL,ioos:station:DISL:CATA:1,2017-08-03T00:00:00Z,30.3085,-88.1395,29.06,1111122 
DISL,ioos:station:DISL:CATA:1,2017-08-03T00:30:00Z,30.3085,-88.1395,29.03,1111122 
DISL,ioos:station:DISL:CATA:1,2017-08-03T01:00:00Z,30.3085,-88.1395,29.06,1111122 
DISL,ioos:station:DISL:CATA:1,2017-08-03T01:30:00Z,30.3085,-88.1395,28.96,1111122 
DISL,ioos:station:DISL:CATA:1,2017-08-03T02:00:00Z,30.3085,-88.1395,29.13,1111122 
DISL,ioos:station:DISL:CATA:1,2017-08-03T02:30:00Z,30.3085,-88.1395,29.03,1111122 
DISL,ioos:station:DISL:CATA:1,2017-08-03T03:00:00Z,30.3085,-88.1395,29.06,1111122 
DISL,ioos:station:DISL:CATA:1,2017-08-03T03:30:00Z,30.3085,-88.1395,29.03,1111122 
DISL,ioos:station:DISL:CATA:1,2017-08-03T04:00:00Z,30.3085,-88.1395,28.93,1111122 
DISL,ioos:station:DISL:CATA:1,2017-08-03T04:30:00Z,30.3085,-88.1395,28.79,1111122 
DISL,ioos:station:DISL:CATA:1,2017-08-03T05:00:00Z,30.3085,-88.1395,28.93,1111122 
DISL,ioos:station:DISL:CATA:1,2017-08-03T05:30:00Z,30.3085,-88.1395,28.11,1111122 
DISL,ioos:station:DISL:CATA:1,2017-08-03T06:30:00Z,30.3085,-88.1395,27.13,1111122 
DISL,ioos:station:DISL:CATA:1,2017-08-03T07:00:00Z,30.3085,-88.1395,26.58,1111122 
DISL,ioos:station:DISL:CATA:1,2017-08-03T07:30:00Z,30.3085,-88.1395,25.35,1111122 
DISL,ioos:station:DISL:CATA:1,2017-08-03T08:00:00Z,30.3085,-88.1395,25.21,1111122 
DISL,ioos:station:DISL:CATA:1,2017-08-03T08:30:00Z,30.3085,-88.1395,24.7,1111122 
DISL,ioos:station:DISL:CATA:1,2017-08-03T09:00:00Z,30.3085,-88.1395,25.01,1111122 
DISL,ioos:station:DISL:CATA:1,2017-08-03T09:30:00Z,30.3085,-88.1395,25.11,1111122 
DISL,ioos:station:DISL:CATA:1,2017-08-03T10:00:00Z,30.3085,-88.1395,24.26,1111122 
DISL,ioos:station:DISL:CATA:1,2017-08-03T10:30:00Z,30.3085,-88.1395,24.36,1111122 
DISL,ioos:station:DISL:CATA:1,2017-08-03T11:00:00Z,30.3085,-88.1395,25.08,1111122 
DISL,ioos:station:DISL:CATA:1,2017-08-03T11:30:00Z,30.3085,-88.1395,25.25,1111122 
DISL,ioos:station:DISL:CATA:1,2017-08-03T12:00:00Z,30.3085,-88.1395,26.28,1111122 
DISL,ioos:station:DISL:CATA:1,2017-08-03T12:30:00Z,30.3085,-88.1395,26.31,1111122 
DISL,ioos:station:DISL:CATA:1,2017-08-03T13:00:00Z,30.3085,-88.1395,24.15,1111122 
DISL,ioos:station:DISL:CATA:1,2017-08-03T13:30:00Z,30.3085,-88.1395,24.91,1111122 
DISL,ioos:station:DISL:CATA:1,2017-08-03T14:00:00Z,30.3085,-88.1395,25.56,1111122 
DISL,ioos:station:DISL:CATA:1,2017-08-03T14:30:00Z,30.3085,-88.1395,25.94,1111122 
DISL,ioos:station:DISL:CATA:1,2017-08-03T15:00:00Z,30.3085,-88.1395,25.73,1111122 
DISL,ioos:station:DISL:CATA:1,2017-08-03T15:30:00Z,30.3085,-88.1395,26.07,1111122 
DISL,ioos:station:DISL:CATA:1,2017-08-03T16:00:00Z,30.3085,-88.1395,25.28,1111122 
DISL,ioos:station:DISL:CATA:1,2017-08-03T16:30:00Z,30.3085,-88.1395,25.25,1111122 
DISL,ioos:station:DISL:CATA:1,2017-08-03T17:00:00Z,30.3085,-88.1395,25.18,1111122 
DISL,ioos:station:DISL:CATA:1,2017-08-03T17:30:00Z,30.3085,-88.1395,24.87,1111122 
DISL,ioos:station:DISL:CATA:1,2017-08-03T18:00:00Z,30.3085,-88.1395,24.43,1111122 
DISL,ioos:station:DISL:CATA:1,2017-08-03T18:30:00Z,30.3085,-88.1395,24.43,1111122 
DISL,ioos:station:DISL:CATA:1,2017-08-03T19:00:00Z,30.3085,-88.1395,24.7,1111122 
DISL,ioos:station:DISL:CATA:1,2017-08-03T19:30:00Z,30.3085,-88.1395,24.94,1111122 
DISL,ioos:station:DISL:CATA:1,2017-08-03T20:00:00Z,30.3085,-88.1395,24.84,1111122 
DISL,ioos:station:DISL:CATA:1,2017-08-03T20:30:00Z,30.3085,-88.1395,24.52,1111122 
DISL,ioos:station:DISL:CATA:1,2017-08-03T21:00:00Z,30.3085,-88.1395,24.83,1111122 
DISL,ioos:station:DISL:CATA:1,2017-08-03T21:30:00Z,30.3085,-88.1395,25.11,1111122 
DISL,ioos:station:DISL:CATA:1,2017-08-03T22:00:00Z,30.3085,-88.1395,25.11,1111122 
DISL,ioos:station:DISL:CATA:1,2017-08-03T22:30:00Z,30.3085,-88.1395,25.31,1111122 
DISL,ioos:station:DISL:CATA:1,2017-08-03T23:00:00Z,30.3085,-88.1395,25.51,1111122 
DISL,ioos:station:DISL:CATA:1,2017-08-03T23:30:00Z,30.3085,-88.1395,25.62,1111122 
DISL,ioos:station:DISL:CATA:1,2017-08-04T00:00:00Z,30.3085,-88.1395,25.79,1111122 
DISL,ioos:station:DISL:CATA:1,2017-08-04T00:30:00Z,30.3085,-88.1395,25.96,1111122 
DISL,ioos:station:DISL:CATA:1,2017-08-04T01:00:00Z,30.3085,-88.1395,25.89,1111122 
DISL,ioos:station:DISL:CATA:1,2017-08-04T01:30:00Z,30.3085,-88.1395,26.07,1111122 
DISL,ioos:station:DISL:CATA:1,2017-08-04T02:00:00Z,30.3085,-88.1395,26.17,1111122 
DISL,ioos:station:DISL:CATA:1,2017-08-04T02:30:00Z,30.3085,-88.1395,26.58,1111122 
DISL,ioos:station:DISL:CATA:1,2017-08-04T03:00:00Z,30.3085,-88.1395,27.26,1111122 
DISL,ioos:station:DISL:CATA:1,2017-08-04T03:30:00Z,30.3085,-88.1395,27.43,1111122 
DISL,ioos:station:DISL:CATA:1,2017-08-04T04:00:00Z,30.3085,-88.1395,27.53,1111122 
DISL,ioos:station:DISL:CATA:1,2017-08-04T04:30:00Z,30.3085,-88.1395,27.46,1111122 
DISL,ioos:station:DISL:CATA:1,2017-08-04T05:00:00Z,30.3085,-88.1395,27.7,1111122 
DISL,ioos:station:DISL:CATA:1,2017-08-04T05:30:00Z,30.3085,-88.1395,27.35,1111122 
DISL,ioos:station:DISL:CATA:1,2017-08-04T06:30:00Z,30.3085,-88.1395,27.9,1111122 
DISL,ioos:station:DISL:CATA:1,2017-08-04T07:00:00Z,30.3085,-88.1395,27.87,1111122 
DISL,ioos:station:DISL:CATA:1,2017-08-04T07:30:00Z,30.3085,-88.1395,27.52,1111122 
DISL,ioos:station:DISL:CATA:1,2017-08-04T08:00:00Z,30.3085,-88.1395,27.87,1111122 
DISL,ioos:station:DISL:CATA:1,2017-08-04T08:30:00Z,30.3085,-88.1395,27.91,1111122 
DISL,ioos:station:DISL:CATA:1,2017-08-04T09:00:00Z,30.3085,-88.1395,28.08,1111122 
DISL,ioos:station:DISL:CATA:1,2017-08-04T09:30:00Z,30.3085,-88.1395,28.08,1111122 
DISL,ioos:station:DISL:CATA:1,2017-08-04T10:00:00Z,30.3085,-88.1395,27.94,1111122 
DISL,ioos:station:DISL:CATA:1,2017-08-04T10:30:00Z,30.3085,-88.1395,28.11,1111122 
DISL,ioos:station:DISL:CATA:1,2017-08-04T11:00:00Z,30.3085,-88.1395,28.14,1111122 
DISL,ioos:station:DISL:CATA:1,2017-08-04T11:30:00Z,30.3085,-88.1395,28.07,1111122 
DISL,ioos:station:DISL:CATA:1,2017-08-04T12:00:00Z,30.3085,-88.1395,26.74,1111122 
DISL,ioos:station:DISL:CATA:1,2017-08-04T12:30:00Z,30.3085,-88.1395,24.82,1111122 
DISL,ioos:station:DISL:CATA:1,2017-08-04T13:00:00Z,30.3085,-88.1395,24.21,1111122 
DISL,ioos:station:DISL:CATA:1,2017-08-04T13:30:00Z,30.3085,-88.1395,24.12,1111122 
DISL,ioos:station:DISL:CATA:1,2017-08-04T14:00:00Z,30.3085,-88.1395,24.02,1111122 
DISL,ioos:station:DISL:CATA:1,2017-08-04T14:30:00Z,30.3085,-88.1395,23.91,1111122 
DISL,ioos:station:DISL:CATA:1,2017-08-04T15:00:00Z,30.3085,-88.1395,24.5,1111122 
DISL,ioos:station:DISL:CATA:1,2017-08-04T15:30:00Z,30.3085,-88.1395,24.84,1111122 
DISL,ioos:station:DISL:CATA:1,2017-08-04T16:00:00Z,30.3085,-88.1395,24.94,1111122 
DISL,ioos:station:DISL:CATA:1,2017-08-04T16:30:00Z,30.3085,-88.1395,25.46,1111122 
DISL,ioos:station:DISL:CATA:1,2017-08-04T17:00:00Z,30.3085,-88.1395,26.28,1111122 
DISL,ioos:station:DISL:CATA:1,2017-08-04T17:30:00Z,30.3085,-88.1395,26.35,1111122 
DISL,ioos:station:DISL:CATA:1,2017-08-04T18:00:00Z,30.3085,-88.1395,26.68,1111122 
DISL,ioos:station:DISL:CATA:1,2017-08-04T18:30:00Z,30.3085,-88.1395,27.29,1111122 
DISL,ioos:station:DISL:CATA:1,2017-08-04T19:00:00Z,30.3085,-88.1395,27.49,1111122 
DISL,ioos:station:DISL:CATA:1,2017-08-04T19:30:00Z,30.3085,-88.1395,27.18,1111122 
DISL,ioos:station:DISL:CATA:1,2017-08-04T20:00:00Z,30.3085,-88.1395,27.42,1111122 
DISL,ioos:station:DISL:CATA:1,2017-08-04T20:30:00Z,30.3085,-88.1395,27.35,1111122 
DISL,ioos:station:DISL:CATA:1,2017-08-04T21:00:00Z,30.3085,-88.1395,27.28,1111122 
DISL,ioos:station:DISL:CATA:1,2017-08-04T21:30:00Z,30.3085,-88.1395,27.01,1111122 
DISL,ioos:station:DISL:CATA:1,2017-08-04T22:00:00Z,30.3085,-88.1395,27.39,1111122 
DISL,ioos:station:DISL:CATA:1,2017-08-04T22:30:00Z,30.3085,-88.1395,27.45,1111122 
DISL,ioos:station:DISL:CATA:1,2017-08-04T23:00:00Z,30.3085,-88.1395,27.45,1111122 
DISL,ioos:station:DISL:CATA:1,2017-08-04T23:30:00Z,30.3085,-88.1395,27.42,1111122 
DISL,ioos:station:DISL:CATA:1,2017-08-05T00:00:00Z,30.3085,-88.1395,27.87,1111122 
DISL,ioos:station:DISL:CATA:1,2017-08-05T00:30:00Z,30.3085,-88.1395,27.32,1111122 
DISL,ioos:station:DISL:CATA:1,2017-08-05T01:00:00Z,30.3085,-88.1395,27.29,1111122 
DISL,ioos:station:DISL:CATA:1,2017-08-05T01:30:00Z,30.3085,-88.1395,27.15,1111122 
DISL,ioos:station:DISL:CATA:1,2017-08-05T02:00:00Z,30.3085,-88.1395,27.12,1111122 
DISL,ioos:station:DISL:CATA:1,2017-08-05T02:30:00Z,30.3085,-88.1395,26.98,1111122 
DISL,ioos:station:DISL:CATA:1,2017-08-05T03:00:00Z,30.3085,-88.1395,27.09,1111122 
DISL,ioos:station:DISL:CATA:1,2017-08-05T03:30:00Z,30.3085,-88.1395,27.26,1111122 
DISL,ioos:station:DISL:CATA:1,2017-08-05T04:00:00Z,30.3085,-88.1395,27.25,1111122 
DISL,ioos:station:DISL:CATA:1,2017-08-05T04:30:00Z,30.3085,-88.1395,27.36,1111122 
DISL,ioos:station:DISL:CATA:1,2017-08-05T05:00:00Z,30.3085,-88.1395,27.49,1111122 
DISL,ioos:station:DISL:CATA:1,2017-08-05T05:30:00Z,30.3085,-88.1395,27.43,1111122 
DISL,ioos:station:DISL:CATA:1,2017-08-05T06:30:00Z,30.3085,-88.1395,27.46,1111122 
DISL,ioos:station:DISL:CATA:1,2017-08-05T07:00:00Z,30.3085,-88.1395,27.53,1111122 
DISL,ioos:station:DISL:CATA:1,2017-08-05T07:30:00Z,30.3085,-88.1395,27.49,1111122 
DISL,ioos:station:DISL:CATA:1,2017-08-05T08:00:00Z,30.3085,-88.1395,26.46,1111122 
DISL,ioos:station:DISL:CATA:1,2017-08-05T08:30:00Z,30.3085,-88.1395,26.19,1111122 
DISL,ioos:station:DISL:CATA:1,2017-08-05T09:00:00Z,30.3085,-88.1395,25.51,1111122 
DISL,ioos:station:DISL:CATA:1,2017-08-05T09:30:00Z,30.3085,-88.1395,25.41,1111122 
DISL,ioos:station:DISL:CATA:1,2017-08-05T10:00:00Z,30.3085,-88.1395,25.59,1111122 
DISL,ioos:station:DISL:CATA:1,2017-08-05T10:30:00Z,30.3085,-88.1395,25.45,1111122 
DISL,ioos:station:DISL:CATA:1,2017-08-05T11:00:00Z,30.3085,-88.1395,25.28,1111122 
DISL,ioos:station:DISL:CATA:1,2017-08-05T11:30:00Z,30.3085,-88.1395,25.08,1111122 
DISL,ioos:station:DISL:CATA:1,2017-08-05T12:00:00Z,30.3085,-88.1395,25.32,1111122 
DISL,ioos:station:DISL:CATA:1,2017-08-05T12:30:00Z,30.3085,-88.1395,25.28,1111122 
DISL,ioos:station:DISL:CATA:1,2017-08-05T13:00:00Z,30.3085,-88.1395,25.45,1111122 
DISL,ioos:station:DISL:CATA:1,2017-08-05T13:30:00Z,30.3085,-88.1395,25.58,1111122 
DISL,ioos:station:DISL:CATA:1,2017-08-05T14:00:00Z,30.3085,-88.1395,25.51,1111122 
DISL,ioos:station:DISL:CATA:1,2017-08-05T14:30:00Z,30.3085,-88.1395,26.06,1111122 
DISL,ioos:station:DISL:CATA:1,2017-08-05T15:00:00Z,30.3085,-88.1395,26.19,1111122 
DISL,ioos:station:DISL:CATA:1,2017-08-05T15:30:00Z,30.3085,-88.1395,26.32,1111122 
DISL,ioos:station:DISL:CATA:1,2017-08-05T16:00:00Z,30.3085,-88.1395,27.18,1111122 
DISL,ioos:station:DISL:CATA:1,2017-08-05T16:30:00Z,30.3085,-88.1395,26.05,1111122 
DISL,ioos:station:DISL:CATA:1,2017-08-05T17:00:00Z,30.3085,-88.1395,25.88,1111122 
DISL,ioos:station:DISL:CATA:1,2017-08-05T17:30:00Z,30.3085,-88.1395,26.19,1111122 
DISL,ioos:station:DISL:CATA:1,2017-08-05T18:00:00Z,30.3085,-88.1395,27.21,1111122 
DISL,ioos:station:DISL:CATA:1,2017-08-05T18:30:00Z,30.3085,-88.1395,27.2,1111122 
DISL,ioos:station:DISL:CATA:1,2017-08-05T19:00:00Z,30.3085,-88.1395,27.98,1111122 
DISL,ioos:station:DISL:CATA:1,2017-08-05T19:30:00Z,30.3085,-88.1395,27.95,1111122 
DISL,ioos:station:DISL:CATA:1,2017-08-05T20:00:00Z,30.3085,-88.1395,28.13,1111122 
DISL,ioos:station:DISL:CATA:1,2017-08-05T20:30:00Z,30.3085,-88.1395,28.03,1111122 
DISL,ioos:station:DISL:CATA:1,2017-08-05T21:00:00Z,30.3085,-88.1395,28.17,1111122 
DISL,ioos:station:DISL:CATA:1,2017-08-05T21:30:00Z,30.3085,-88.1395,28.17,1111122 
DISL,ioos:station:DISL:CATA:1,2017-08-05T22:00:00Z,30.3085,-88.1395,28.14,1111122 
DISL,ioos:station:DISL:CATA:1,2017-08-05T22:30:00Z,30.3085,-88.1395,28.0,1111122 
DISL,ioos:station:DISL:CATA:1,2017-08-05T23:00:00Z,30.3085,-88.1395,28.0,1111122 
DISL,ioos:station:DISL:CATA:1,2017-08-05T23:30:00Z,30.3085,-88.1395,28.07,1111122 
DISL,ioos:station:DISL:CATA:1,2017-08-06T00:00:00Z,30.3085,-88.1395,27.87,1111122 
DISL,ioos:station:DISL:CATA:1,2017-08-06T00:30:00Z,30.3085,-88.1395,28.11,1111122 
DISL,ioos:station:DISL:CATA:1,2017-08-06T01:00:00Z,30.3085,-88.1395,27.97,1111122 
DISL,ioos:station:DISL:CATA:1,2017-08-06T01:30:00Z,30.3085,-88.1395,27.93,1111122 
DISL,ioos:station:DISL:CATA:1,2017-08-06T02:00:00Z,30.3085,-88.1395,27.9,1111122 
DISL,ioos:station:DISL:CATA:1,2017-08-06T02:30:00Z,30.3085,-88.1395,27.83,1111122 
DISL,ioos:station:DISL:CATA:1,2017-08-06T03:00:00Z,30.3085,-88.1395,27.83,1111122 
DISL,ioos:station:DISL:CATA:1,2017-08-06T03:30:00Z,30.3085,-88.1395,27.7,1111122 
DISL,ioos:station:DISL:CATA:1,2017-08-06T04:00:00Z,30.3085,-88.1395,27.59,1111122 
DISL,ioos:station:DISL:CATA:1,2017-08-06T04:30:00Z,30.3085,-88.1395,27.93,1111122 
DISL,ioos:station:DISL:CATA:1,2017-08-06T05:00:00Z,30.3085,-88.1395,27.8,1111122 
DISL,ioos:station:DISL:CATA:1,2017-08-06T05:30:00Z,30.3085,-88.1395,27.66,1111122 
DISL,ioos:station:DISL:CATA:1,2017-08-06T06:30:00Z,30.3085,-88.1395,27.76,1111122 
DISL,ioos:station:DISL:CATA:1,2017-08-06T07:00:00Z,30.3085,-88.1395,27.8,1111122 
DISL,ioos:station:DISL:CATA:1,2017-08-06T07:30:00Z,30.3085,-88.1395,27.97,1111122 
DISL,ioos:station:DISL:CATA:1,2017-08-06T08:00:00Z,30.3085,-88.1395,27.83,1111122 
DISL,ioos:station:DISL:CATA:1,2017-08-06T08:30:00Z,30.3085,-88.1395,28.04,1111122 
DISL,ioos:station:DISL:CATA:1,2017-08-06T09:00:00Z,30.3085,-88.1395,27.97,1111122 
DISL,ioos:station:DISL:CATA:1,2017-08-06T09:30:00Z,30.3085,-88.1395,27.87,1111122 
DISL,ioos:station:DISL:CATA:1,2017-08-06T10:00:00Z,30.3085,-88.1395,28.11,1111122 
DISL,ioos:station:DISL:CATA:1,2017-08-06T10:30:00Z,30.3085,-88.1395,28.0,1111122 
DISL,ioos:station:DISL:CATA:1,2017-08-06T11:00:00Z,30.3085,-88.1395,28.24,1111122 
DISL,ioos:station:DISL:CATA:1,2017-08-06T11:30:00Z,30.3085,-88.1395,27.97,1111122 
DISL,ioos:station:DISL:CATA:1,2017-08-06T12:00:00Z,30.3085,-88.1395,28.07,1111122 
DISL,ioos:station:DISL:CATA:1,2017-08-06T12:30:00Z,30.3085,-88.1395,27.21,1111122 
DISL,ioos:station:DISL:CATA:1,2017-08-06T13:00:00Z,30.3085,-88.1395,27.7,1111122 
DISL,ioos:station:DISL:CATA:1,2017-08-06T13:30:00Z,30.3085,-88.1395,28.45,1111122 
DISL,ioos:station:DISL:CATA:1,2017-08-06T14:00:00Z,30.3085,-88.1395,28.79,1111122 
DISL,ioos:station:DISL:CATA:1,2017-08-06T14:30:00Z,30.3085,-88.1395,28.79,1111122 
DISL,ioos:station:DISL:CATA:1,2017-08-06T15:00:00Z,30.3085,-88.1395,28.79,1111122 
DISL,ioos:station:DISL:CATA:1,2017-08-06T15:30:00Z,30.3085,-88.1395,28.43,1111122 
DISL,ioos:station:DISL:CATA:1,2017-08-06T16:00:00Z,30.3085,-88.1395,28.84,1111122 
DISL,ioos:station:DISL:CATA:1,2017-08-06T16:30:00Z,30.3085,-88.1395,28.63,1111122 
DISL,ioos:station:DISL:CATA:1,2017-08-06T17:00:00Z,30.3085,-88.1395,28.66,1111122 
DISL,ioos:station:DISL:CATA:1,2017-08-06T17:30:00Z,30.3085,-88.1395,28.94,1111122 
DISL,ioos:station:DISL:CATA:1,2017-08-06T18:00:00Z,30.3085,-88.1395,29.04,1111122 
DISL,ioos:station:DISL:CATA:1,2017-08-06T18:30:00Z,30.3085,-88.1395,29.08,1111122 
DISL,ioos:station:DISL:CATA:1,2017-08-06T19:00:00Z,30.3085,-88.1395,29.01,1111122 
DISL,ioos:station:DISL:CATA:1,2017-08-06T19:30:00Z,30.3085,-88.1395,28.91,1111122 
DISL,ioos:station:DISL:CATA:1,2017-08-06T20:00:00Z,30.3085,-88.1395,29.63,1111122 
DISL,ioos:station:DISL:CATA:1,2017-08-06T20:30:00Z,30.3085,-88.1395,29.6,1111122 
DISL,ioos:station:DISL:CATA:1,2017-08-06T21:00:00Z,30.3085,-88.1395,29.63,1111122 
DISL,ioos:station:DISL:CATA:1,2017-08-06T21:30:00Z,30.3085,-88.1395,29.22,1111122 
DISL,ioos:station:DISL:CATA:1,2017-08-06T22:00:00Z,30.3085,-88.1395,29.67,1111122 
DISL,ioos:station:DISL:CATA:1,2017-08-06T22:30:00Z,30.3085,-88.1395,29.53,1111122 
DISL,ioos:station:DISL:CATA:1,2017-08-06T23:00:00Z,30.3085,-88.1395,29.57,1111122 
DISL,ioos:station:DISL:CATA:1,2017-08-06T23:30:00Z,30.3085,-88.1395,29.2,1111122 
DISL,ioos:station:DISL:CATA:1,2017-08-07T00:00:00Z,30.3085,-88.1395,29.06,1111122 
DISL,ioos:station:DISL:CATA:1,2017-08-07T00:30:00Z,30.3085,-88.1395,28.82,1111122 
DISL,ioos:station:DISL:CATA:1,2017-08-07T01:00:00Z,30.3085,-88.1395,28.79,1111122 
DISL,ioos:station:DISL:CATA:1,2017-08-07T01:30:00Z,30.3085,-88.1395,28.96,1111122 
DISL,ioos:station:DISL:CATA:1,2017-08-07T02:00:00Z,30.3085,-88.1395,28.96,1111122 
DISL,ioos:station:DISL:CATA:1,2017-08-07T02:30:00Z,30.3085,-88.1395,28.86,1111122 